Theta_e
312 316 318 317 316 315 314 314 314 314 314 314 314 314 315 314 312 313 313 312 312 313 315 315 314 313 313 314 313 312 312 312 311 311 311 312 312 313 313 314 315 316 317 317 317 317 317 316 316 316 316 315 315 315 314 314 314 313 313 312 312 311 311 310 309 308 308 307 307 307 306 305 304 303 302 301 301 301 301 300 300 300 300 300 300 300
312 316 317 317 315 314 314 314 313 313 313 313 314 314 313 313 313 312 313 313 312 312 314 314 315 313 313 313 312 312 312 312 311 311 311 312 312 312 313 313 314 316 316 316 317 316 316 316 316 316 315 315 314 314 314 314 314 313 313 313 312 311 311 310 310 309 309 309 308 308 308 308 306 305 304 303 302 301 301 301 300 300 299 299 299 299
314 315 315 314 313 313 313 313 313 313 313 314 314 314 314 313 313 312 314 315 312 312 316 316 314 313 313 313 312 312 312 312 313 312 313 313 312 312 313 313 314 315 316 316 317 316 316 315 315 315 314 314 314 314 314 314 314 313 313 312 312 311 311 310 310 309 309 309 309 308 308 307 306 305 304 303 302 301 301 300 300 299 299 299 299 299
317 316 314 311 311 313 314 313 314 313 313 314 314 314 314 313 314 314 315 318 314 313 318 317 313 312 312 313 312 311 311 312 313 312 313 313 312 313 313 314 314 314 315 315 316 316 316 315 314 314 314 314 315 314 314 314 314 313 313 312 312 311 311 310 310 310 309 308 307 307 306 306 306 305 304 302 301 301 300 300 300 299 299 298 298 298
316 315 312 312 313 314 315 314 315 315 313 314 315 314 314 314 314 314 314 317 315 314 316 315 313 313 313 313 313 312 311 311 312 311 312 312 312 313 314 314 314 314 315 315 316 317 316 316 315 314 314 314 314 314 314 314 314 313 313 312 312 311 311 310 310 309 308 307 306 306 305 304 303 303 302 301 301 301 300 300 300 300 299 298 298 298
313 312 312 315 317 316 315 315 316 317 314 314 315 315 314 314 315 314 315 315 315 317 317 315 316 317 317 317 313 313 314 313 312 312 312 312 313 313 313 314 315 315 315 316 316 317 316 316 315 314 314 314 314 314 314 314 314 313 313 312 312 311 310 310 309 309 308 308 307 306 306 305 305 304 304 304 304 303 302 302 301 300 299 298 298 297
314 312 313 317 320 318 316 316 317 316 314 315 320 320 316 314 315 316 316 315 318 322 316 315 318 317 318 319 317 316 316 314 314 314 312 311 312 313 313 315 316 316 316 316 316 317 317 316 316 315 315 315 314 315 314 314 313 313 313 312 311 311 310 310 309 309 308 307 307 307 307 307 307 307 307 306 305 304 303 302 301 300 299 298 298 297
315 313 315 317 317 319 318 316 316 315 315 317 321 325 321 319 318 317 317 317 319 320 316 316 320 319 317 318 319 319 318 317 316 317 315 312 311 312 313 315 317 317 317 317 316 317 317 316 316 316 316 315 315 315 314 314 313 313 312 312 311 311 310 310 309 309 308 308 308 307 307 307 307 307 307 306 305 304 303 301 301 300 299 298 298 297
315 316 317 316 315 317 316 316 317 316 316 318 319 321 322 321 320 318 318 320 319 317 317 317 318 319 317 317 318 317 317 318 317 317 316 314 313 312 314 316 317 317 317 317 317 317 317 317 316 316 315 315 315 314 314 314 314 313 312 312 311 310 310 309 309 309 308 308 308 308 307 307 307 306 305 304 304 303 303 302 301 300 299 299 298 297
315 316 314 315 317 315 314 318 321 319 317 317 317 320 322 323 323 320 319 318 319 318 318 318 318 318 318 318 318 315 315 318 316 315 315 313 313 313 314 316 316 317 317 317 317 317 317 317 316 315 314 315 314 314 314 314 314 313 312 312 311 310 310 309 309 309 308 308 308 307 307 307 307 306 304 304 303 302 302 301 301 300 299 299 298 298
311 311 310 313 315 313 316 317 313 316 315 313 317 323 325 325 325 325 324 320 318 318 319 321 319 318 318 318 319 317 317 318 315 314 315 314 312 313 315 316 316 317 317 317 317 316 317 316 315 314 314 314 314 314 314 314 313 313 312 312 311 310 310 309 309 308 308 308 308 308 308 308 307 306 305 304 303 303 302 301 301 300 300 299 298 298
310 310 313 314 311 311 317 314 309 311 312 313 322 324 323 325 324 325 324 320 317 319 320 321 319 317 317 317 317 319 319 318 316 316 320 321 315 313 316 317 316 318 317 317 317 316 317 316 315 314 314 314 314 314 314 314 313 313 312 312 311 310 310 309 309 309 308 308 308 308 308 308 307 306 306 305 305 304 303 303 302 301 300 299 298 297
314 313 314 314 311 312 317 317 316 315 313 316 322 320 319 322 321 320 322 320 318 320 319 317 316 315 316 317 316 317 318 318 316 313 317 320 315 314 316 318 316 317 318 316 317 316 316 316 316 315 314 314 315 314 314 314 314 313 312 311 311 310 310 309 309 309 309 308 309 309 308 308 306 306 306 306 306 305 305 304 302 301 300 299 299 298
319 315 312 312 312 313 316 317 318 318 316 315 318 319 319 320 319 320 323 321 317 319 317 314 315 315 318 320 317 315 315 315 313 311 312 314 313 315 316 317 317 317 317 317 317 316 316 317 316 315 314 314 314 315 314 314 313 313 312 311 311 311 310 310 310 310 309 310 310 309 308 308 306 306 306 306 306 306 305 304 303 302 301 301 300 300
319 316 314 315 316 314 314 315 317 320 317 313 317 320 318 321 324 323 325 322 318 322 320 313 316 319 318 318 319 317 314 312 312 311 311 312 313 315 315 315 316 316 317 317 316 314 315 316 316 315 315 314 314 315 314 314 314 313 312 311 312 311 311 311 311 310 310 310 310 309 308 308 307 307 306 306 307 306 306 305 304 303 302 301 301 300
316 317 317 313 313 314 314 314 317 320 318 314 318 321 316 320 324 320 320 320 317 321 320 315 318 321 317 315 317 319 317 313 311 310 310 311 313 314 314 315 316 316 317 316 314 313 314 315 315 315 314 314 314 314 314 314 313 313 312 312 312 313 312 312 311 311 311 310 309 308 308 308 307 307 307 306 306 306 306 305 304 304 303 302 301 300
315 319 319 311 310 312 311 312 314 316 316 315 316 318 315 317 319 316 320 321 315 317 318 318 319 318 317 317 315 316 316 314 314 314 311 311 311 312 312 313 315 316 316 315 313 313 314 315 315 315 315 314 314 314 314 314 313 313 312 312 313 313 312 312 312 311 311 310 309 308 308 308 307 307 307 307 307 306 306 305 304 303 302 302 301 300
316 317 318 314 313 311 305 307 312 311 311 316 317 316 314 316 318 317 321 321 317 317 318 318 318 316 317 319 317 318 317 315 319 318 313 310 309 309 310 312 315 315 315 314 313 313 314 314 315 315 315 314 314 314 314 314 313 312 312 312 313 313 313 313 312 312 311 310 310 309 309 308 308 308 308 307 306 305 305 305 305 303 302 302 301 300
316 314 317 316 315 312 306 310 316 310 307 313 316 315 315 317 319 318 319 319 317 317 318 318 318 317 317 318 317 319 319 317 319 318 315 315 311 307 310 313 314 314 315 315 315 314 314 314 315 315 315 315 314 314 314 314 313 312 312 312 312 313 313 313 312 311 311 311 310 310 310 310 309 308 307 307 306 305 304 305 305 304 303 301 301 300
315 314 316 315 313 312 310 313 318 315 311 311 312 313 314 315 318 319 319 319 318 317 318 319 319 318 319 321 318 318 320 318 316 316 316 316 311 308 311 312 313 314 315 315 315 315 315 314 315 315 315 315 314 314 314 314 313 312 312 312 312 313 313 312 312 311 311 311 311 310 310 310 309 309 308 307 305 305 305 305 305 305 304 302 301 300
315 315 314 315 314 312 312 314 318 318 316 313 313 315 313 313 316 317 316 318 317 316 318 319 319 318 319 321 319 318 318 314 311 313 315 313 310 311 313 313 313 314 314 314 314 314 314 313 314 315 315 315 314 314 314 313 313 312 312 311 311 312 312 312 312 311 311 311 311 311 310 310 310 309 308 307 305 305 304 304 304 305 304 302 301 299
316 317 314 315 315 314 315 316 316 318 317 315 314 314 314 314 316 316 315 317 316 316 317 317 318 318 316 317 317 315 314 313 312 313 313 311 310 312 314 313 314 314 313 314 314 313 314 313 314 314 315 315 314 314 314 313 313 312 311 311 311 311 312 312 312 312 311 311 311 311 310 310 309 309 308 307 306 305 304 304 303 304 304 303 301 299
314 315 315 315 316 316 316 315 315 315 315 314 314 315 315 314 314 316 316 317 317 316 316 316 316 317 315 315 314 314 313 312 312 312 311 309 309 312 312 312 313 313 313 314 313 314 314 313 313 314 315 315 314 313 314 313 312 312 311 311 311 311 311 312 312 312 311 311 310 310 310 309 309 308 308 307 306 305 305 304 303 303 303 304 302 300
314 315 316 316 317 317 316 316 315 312 310 312 313 314 314 314 314 315 315 315 316 316 316 317 316 317 319 319 315 314 313 310 309 309 309 307 308 310 311 311 312 312 312 313 313 314 314 312 311 313 314 314 313 313 313 312 312 312 311 311 311 311 312 312 312 311 311 310 310 309 309 308 308 307 307 307 306 306 305 304 302 301 302 303 302 301
316 317 318 318 318 318 318 318 317 313 310 312 314 313 312 313 313 314 315 315 315 315 316 317 316 316 319 319 315 313 313 311 310 311 310 308 309 310 310 311 312 311 312 313 313 313 312 310 311 312 313 313 312 313 313 313 312 312 311 312 311 311 311 311 311 311 311 310 309 309 308 307 307 307 307 307 307 306 305 304 303 301 300 301 302 301
316 318 318 318 318 318 317 318 318 318 314 312 314 314 312 313 313 313 314 314 314 315 315 315 315 315 314 314 313 313 313 312 312 312 311 311 310 311 311 311 311 311 312 312 313 312 310 310 311 311 312 312 312 313 313 312 312 312 312 312 312 311 311 311 311 310 311 310 309 308 307 307 307 307 307 307 307 306 305 304 303 301 300 300 301 300
314 315 316 316 317 317 316 316 318 320 317 313 315 315 313 313 313 312 314 314 314 314 314 314 314 314 314 314 313 313 312 313 312 312 312 311 312 312 312 311 311 311 312 312 313 313 311 311 311 312 312 313 313 313 313 313 313 312 312 312 311 311 311 311 311 310 310 310 309 308 307 307 307 307 307 307 307 306 305 304 303 301 300 299 299 299
312 312 314 315 314 315 315 315 316 317 316 314 315 314 314 313 312 312 313 313 313 314 314 315 315 315 314 314 313 313 312 312 312 312 312 312 312 312 312 311 312 311 312 311 311 312 313 313 313 313 313 313 313 313 313 313 313 312 312 312 311 311 311 311 311 310 310 310 309 308 307 307 308 307 306 306 306 305 304 303 302 301 300 298 298 298
311 311 313 314 313 313 314 314 314 315 315 314 315 314 314 314 313 313 312 312 313 314 314 314 314 314 314 313 313 313 312 312 312 312 312 312 312 312 312 312 311 311 311 311 311 312 312 312 312 312 313 313 312 312 312 312 312 312 312 312 312 311 311 311 310 310 310 309 309 309 308 307 307 306 305 304 305 304 303 303 302 300 299 298 297 297
310 312 312 313 313 313 313 313 313 313 313 313 314 313 313 313 314 314 313 313 313 313 313 313 313 313 313 312 312 312 312 312 312 312 312 312 312 312 311 312 311 311 311 311 311 311 311 311 312 311 312 312 312 312 312 312 312 312 312 312 312 311 311 310 310 310 310 309 309 309 308 307 306 306 305 304 304 304 303 302 301 300 299 298 297 296
309 312 313 313 313 312 313 313 312 312 313 313 313 313 313 313 314 314 313 313 313 313 313 313 313 313 312 312 312 311 311 311 311 312 311 311 312 312 311 311 311 310 309 308 308 309 309 310 310 311 311 311 311 312 312 312 312 312 312 312 312 311 310 310 310 310 309 309 309 309 308 306 306 305 305 304 304 303 302 302 301 299 298 297 297 296
308 310 311 312 313 313 312 313 312 312 312 312 312 312 313 313 313 313 313 313 314 314 314 313 313 313 312 311 311 311 311 311 311 311 311 312 312 310 309 308 306 304 303 303 304 304 305 306 307 308 309 310 311 311 311 312 312 312 312 312 311 311 310 310 310 310 309 309 308 308 307 306 305 305 305 304 304 303 302 301 300 299 298 297 297 296
308 309 310 310 312 312 312 313 312 312 312 312 312 312 312 313 313 313 313 313 313 313 313 314 314 313 312 312 312 311 311 311 311 311 310 309 307 305 303 301 300 299 299 299 300 300 301 303 304 305 306 307 308 309 310 311 311 311 312 311 311 311 310 310 309 309 309 308 308 307 307 306 305 305 305 304 303 303 301 300 300 299 298 298 297 296
308 308 309 310 311 311 312 313 312 313 314 315 315 314 312 312 313 313 313 313 313 313 313 312 310 308 307 306 306 306 306 306 309 308 305 301 299 299 298 297 297 297 297 297 297 297 298 299 300 302 304 305 306 307 308 309 309 310 310 310 310 310 309 309 309 309 308 307 307 307 306 305 305 305 305 304 303 302 301 300 300 299 298 297 296 296
306 307 308 309 310 310 311 311 312 314 314 313 315 315 312 312 312 312 313 312 310 308 306 304 300 297 297 297 297 298 298 299 302 302 299 297 296 295 295 295 295 295 295 295 295 296 296 297 298 299 301 303 305 306 306 307 308 308 308 308 309 309 309 309 310 309 308 307 306 306 305 305 304 304 304 303 302 301 301 300 299 298 298 297 296 296
306 307 307 308 309 310 310 310 311 312 311 311 313 312 309 308 309 310 313 309 302 299 299 297 296 295 294 294 295 295 295 297 301 301 298 296 294 294 294 294 294 294 294 295 295 295 296 296 297 297 298 300 303 304 305 306 306 307 307 306 306 307 309 310 309 309 308 307 306 305 305 304 304 303 303 302 301 301 300 299 299 298 297 297 296 295
305 306 307 308 309 309 309 310 310 311 312 310 307 303 300 300 301 304 308 303 296 295 297 295 294 294 293 293 294 294 294 296 300 300 297 294 294 294 294 294 294 294 295 295 295 296 296 297 298 298 298 299 301 302 303 304 304 305 306 306 305 306 307 308 309 308 307 307 306 306 305 304 304 303 303 302 301 301 300 299 299 298 297 296 296 295
305 306 307 308 309 309 309 310 309 311 311 304 298 296 296 298 297 299 304 302 295 294 296 294 294 294 293 293 294 293 293 294 295 295 294 293 293 294 294 294 295 295 295 295 296 296 297 298 298 298 298 299 300 301 301 302 303 304 305 304 304 304 305 306 307 308 308 308 307 306 305 305 304 303 303 302 302 301 300 299 299 298 297 296 295 295
303 305 305 306 308 308 309 309 309 310 306 298 295 296 296 296 295 300 307 304 295 293 295 294 293 293 292 292 293 293 293 293 293 293 293 293 293 294 294 294 295 295 295 295 296 296 296 297 297 297 297 298 300 301 301 301 302 303 303 303 302 302 302 304 304 305 305 306 306 305 305 304 304 303 303 303 303 302 300 299 298 297 296 295 294 294
301 303 304 304 304 304 305 305 306 306 301 294 295 297 295 294 298 304 309 303 294 294 295 293 292 293 293 292 293 293 293 292 292 293 293 293 294 294 294 294 294 295 295 294 295 295 294 295 295 296 296 297 298 300 301 301 302 302 302 302 302 301 301 301 302 301 301 302 302 302 302 302 302 303 302 302 302 300 299 298 297 296 295 294 293 293
299 300 301 300 300 301 302 302 303 303 298 293 294 295 294 294 298 303 303 297 293 295 295 292 292 293 292 292 292 292 292 292 292 293 293 293 294 294 294 293 293 293 293 293 293 293 293 293 293 294 295 295 296 297 298 299 300 301 302 302 302 301 301 300 300 300 300 300 300 300 300 300 301 301 301 300 300 299 298 297 297 296 295 294 293 292
296 296 298 299 299 299 299 299 300 301 298 294 293 294 294 294 294 295 295 293 294 296 294 291 292 292 292 292 292 292 292 293 293 293 293 293 293 292 292 292 291 291 291 291 291 291 292 292 292 293 293 294 295 296 297 297 298 299 300 301 302 301 300 300 300 300 300 299 299 299 298 298 298 298 298 298 297 297 296 296 295 295 294 293 293 292
294 294 295 296 296 296 296 297 299 299 297 294 292 293 294 293 292 292 293 294 295 295 293 291 292 292 291 292 292 292 292 292 292 292 292 291 291 291 290 290 290 290 290 290 290 291 290 290 291 291 292 292 293 294 295 296 296 297 298 299 300 300 300 300 300 300 300 300 299 298 297 296 296 297 296 296 296 295 295 295 294 293 292 292 292 291
293 293 293 294 296 296 296 297 298 297 295 293 292 293 294 293 292 292 293 294 294 293 292 291 292 291 291 292 292 291 291 290 291 290 289 289 290 290 289 289 289 289 289 289 289 289 289 289 289 290 290 290 291 292 292 293 294 295 296 297 298 299 299 300 300 300 300 300 299 298 297 296 296 295 295 295 294 293 293 293 293 292 292 291 291 290
294 294 293 294 295 295 294 295 295 295 293 292 293 293 293 292 292 292 292 294 294 293 291 291 292 291 292 291 291 290 289 289 289 288 288 289 289 288 288 288 288 288 288 288 288 288 288 288 288 288 289 289 289 290 291 291 292 293 295 296 297 297 298 298 299 299 300 300 300 299 298 297 296 295 294 294 293 293 293 293 292 292 291 291 290 290
293 292 292 293 294 293 293 293 293 292 291 291 292 292 291 291 292 291 292 294 294 292 291 291 291 291 291 290 289 288 288 288 287 287 287 288 287 287 287 287 287 287 287 287 287 287 287 287 287 287 287 288 288 289 289 290 291 291 293 294 295 296 297 298 298 298 299 299 299 299 298 298 297 296 295 294 293 292 292 292 292 291 291 290 289 289
292 291 291 292 292 291 291 291 291 290 290 290 290 290 290 291 290 290 292 293 292 291 290 291 290 290 290 288 287 287 287 286 286 286 286 286 286 286 286 286 286 286 286 286 286 286 286 286 286 286 286 287 287 287 288 289 289 290 291 292 293 294 295 296 297 298 299 299 298 297 298 298 299 297 296 295 294 292 291 291 290 290 290 290 289 289
291 291 292 292 291 291 291 291 290 290 290 290 290 290 290 290 289 289 291 291 290 290 290 290 289 288 288 287 286 286 285 285 285 285 285 285 285 285 285 285 285 285 285 285 285 285 285 285 285 285 285 285 286 286 286 287 288 289 290 291 291 291 293 294 295 296 297 298 297 297 297 297 298 298 297 296 295 293 292 291 291 291 291 291 291 290
291 291 292 292 291 290 290 290 289 289 289 289 290 290 290 290 289 289 289 289 289 289 288 288 288 287 286 286 285 285 284 284 285 284 283 283 284 284 284 284 284 284 284 284 284 284 284 284 284 284 284 285 285 285 285 286 287 287 288 289 290 290 291 292 293 294 296 296 297 297 297 297 298 299 299 298 297 296 294 293 292 292 292 292 291 290
290 290 291 291 290 290 290 289 290 289 289 289 289 289 289 289 289 289 289 288 288 287 286 286 286 286 286 285 284 284 283 283 284 283 283 283 283 283 283 283 283 283 283 283 283 284 284 284 284 283 283 284 284 284 284 285 285 286 286 287 288 289 289 289 291 292 294 295 296 297 297 297 298 298 298 298 298 297 295 293 291 290 289 289 288 287
290 290 290 290 290 290 290 289 289 289 289 289 289 289 289 288 288 288 287 287 285 285 284 284 283 284 284 284 284 283 282 282 283 282 282 282 283 282 282 282 282 282 282 282 282 282 283 283 282 282 283 284 284 284 284 284 284 285 286 286 287 287 287 288 289 291 292 293 294 296 296 296 296 296 296 295 295 294 293 291 290 288 287 286 285 285
Wind_Speed
11 5 3 7 11 13 11 12 16 15 10 7 5 6 8 9 10 10 14 11 5 6 8 12 17 17 17 18 19 27 28 23 26 26 27 33 36 38 40 42 44 45 49 50 49 48 46 46 46 45 43 41 40 40 41 42 43 44 44 44 44 43 43 43 44 42 42 41 41 43 45 46 46 46 46 45 43 42 40 39 38 37 37 36 35 34
8 6 8 15 17 13 9 11 13 10 8 8 7 8 9 8 13 13 13 13 6 5 8 11 16 18 17 16 17 21 18 17 23 23 27 34 34 37 39 43 47 48 52 51 51 52 49 47 46 44 43 41 41 41 41 42 43 45 45 44 44 44 44 44 44 43 43 42 41 41 42 43 46 47 47 46 45 44 42 41 40 39 39 38 37 36
4 6 14 20 13 7 6 6 7 9 9 8 6 7 8 7 12 12 10 14 5 4 8 9 13 16 14 15 15 16 16 21 31 30 33 37 32 33 39 42 46 48 50 51 52 53 51 48 45 42 42 41 40 39 39 41 43 45 46 45 45 45 45 44 44 43 42 41 41 40 39 40 43 45 46 46 45 44 44 43 42 41 41 40 39 38
5 7 17 19 8 5 8 6 5 6 6 7 7 6 8 7 9 9 6 9 4 3 7 8 12 12 9 11 11 18 27 28 33 35 38 42 35 36 43 43 43 45 48 51 52 52 50 47 44 43 43 41 39 38 39 41 43 46 46 46 46 45 45 44 43 42 41 41 41 41 40 39 40 42 44 46 46 46 46 45 44 44 43 42 41 39
9 8 13 12 8 9 11 9 6 6 7 9 9 8 11 12 12 11 6 6 5 4 5 6 12 11 8 13 11 16 25 24 28 31 33 42 42 41 46 46 45 47 49 51 52 51 49 47 45 43 41 39 38 39 40 41 43 45 46 46 46 44 43 43 42 42 42 43 43 42 42 42 42 43 45 47 49 49 48 47 47 46 45 43 42 40
11 10 9 8 8 11 10 9 8 8 10 8 8 13 18 16 13 13 10 8 6 5 4 1 8 9 7 13 13 11 12 13 18 20 24 37 42 38 42 49 50 49 50 52 52 51 49 48 45 41 39 39 39 40 39 39 41 44 44 45 44 43 42 42 42 43 43 44 44 43 43 44 45 46 48 49 50 50 49 49 49 47 46 44 43 41
7 11 10 9 9 10 8 8 9 11 9 8 7 13 17 13 10 12 9 5 3 5 4 2 2 10 5 7 10 10 9 11 12 12 18 31 36 33 38 47 49 48 48 49 48 47 46 45 44 42 41 40 39 38 37 38 40 42 44 44 42 41 41 41 42 43 44 44 44 44 43 43 44 45 46 46 47 47 48 48 48 47 46 45 43 42
5 8 9 10 9 7 7 9 10 12 8 8 4 9 11 9 9 8 6 5 4 3 4 1 4 8 13 6 10 12 10 10 11 13 17 23 28 31 36 42 45 45 47 45 44 44 42 42 42 40 38 36 36 36 36 37 39 41 42 42 41 40 40 40 41 42 43 44 44 44 44 44 44 45 44 44 44 45 46 47 47 47 46 45 44 43
5 7 10 11 8 6 9 11 9 13 8 6 3 7 7 6 5 5 4 5 2 4 4 3 5 4 14 7 7 9 9 9 13 17 18 18 22 29 35 41 43 44 46 44 44 43 41 41 39 35 32 30 31 33 34 35 36 38 40 40 40 39 39 40 41 41 42 43 43 43 43 44 44 44 45 44 44 44 45 46 46 46 46 45 44 44
2 4 8 10 7 8 11 7 8 14 9 4 6 5 5 3 3 5 3 1 2 5 5 6 6 3 13 7 4 3 5 9 13 14 14 14 20 28 34 38 39 39 41 40 41 41 39 39 36 31 27 26 28 30 31 33 35 37 38 39 39 39 39 40 40 41 42 43 43 43 43 43 44 44 45 45 45 46 46 46 46 46 46 46 45 45
2 2 2 6 7 7 5 2 3 8 6 4 7 5 6 5 5 4 1 4 2 8 6 10 11 7 8 6 5 4 5 8 9 8 9 11 20 28 31 33 33 31 33 36 38 39 37 36 33 28 24 24 26 28 31 34 36 37 37 38 39 39 39 39 40 41 41 43 43 43 43 43 43 43 44 44 45 46 47 47 47 47 46 46 46 45
4 2 1 4 7 5 6 4 2 2 4 5 4 4 3 4 4 4 4 4 1 9 5 12 13 10 10 6 3 5 6 5 7 8 9 10 16 24 26 28 29 29 32 35 36 36 35 34 33 29 24 24 26 29 32 34 36 37 37 38 38 39 39 38 39 40 41 43 43 43 43 43 43 42 41 41 42 43 44 45 46 47 47 47 47 46
4 7 5 2 4 7 6 3 3 5 3 5 4 5 1 4 3 3 3 1 4 9 5 8 8 7 12 8 4 8 10 8 9 9 12 11 14 23 24 25 29 32 34 35 35 34 34 32 32 30 26 25 27 30 32 34 36 37 37 37 37 38 38 38 40 41 42 42 42 43 43 43 43 42 39 37 38 40 41 43 45 46 47 47 48 48
4 6 4 3 3 8 10 5 3 2 4 7 5 6 5 3 2 3 4 2 5 8 4 5 6 5 8 4 9 15 15 13 11 13 21 21 22 27 28 27 31 35 37 37 36 34 32 29 29 29 26 26 28 30 32 35 36 37 37 37 37 37 38 39 40 41 42 43 43 43 44 43 43 42 40 36 35 36 38 40 42 43 45 46 46 46
4 8 5 7 4 10 13 12 9 4 5 7 5 6 6 5 5 4 5 6 7 6 4 2 5 5 3 2 8 12 10 10 11 15 20 21 25 30 32 33 34 37 38 38 36 33 29 26 25 26 26 26 28 30 32 34 36 37 38 36 36 38 39 40 41 43 43 43 43 45 44 43 43 42 40 37 35 35 36 38 39 40 42 43 44 44
5 10 7 5 3 11 14 12 9 7 2 4 4 4 4 6 6 4 6 6 3 2 4 3 5 5 4 5 8 7 8 9 10 13 13 17 25 30 34 37 39 40 40 39 35 31 27 24 24 25 25 26 28 30 31 33 35 36 37 36 36 38 40 41 42 43 44 44 45 46 45 44 44 43 42 40 38 36 36 37 38 38 39 40 41 41
5 7 3 1 1 5 5 4 6 5 3 2 4 4 4 4 6 5 6 2 2 4 6 4 6 6 5 8 6 3 6 7 8 11 11 17 24 25 28 35 39 41 41 38 34 30 27 25 24 24 24 26 28 29 29 31 33 34 35 35 34 37 40 41 42 43 43 44 46 47 47 47 46 45 43 41 39 37 36 36 38 39 39 39 39 39
6 6 3 4 3 3 3 4 2 2 2 5 4 6 2 3 2 3 2 2 2 8 7 6 11 9 5 8 4 5 5 7 8 7 7 12 16 17 24 32 37 38 38 38 37 33 29 28 28 25 24 25 25 27 28 28 29 33 36 35 35 37 40 40 42 43 44 45 47 46 46 47 47 47 45 43 42 41 40 37 37 39 40 39 39 39
4 6 5 2 2 2 3 2 2 5 3 5 4 2 4 2 2 2 3 3 6 9 7 10 16 10 7 9 5 4 8 10 8 6 6 9 10 13 21 29 35 37 36 39 41 39 36 33 31 28 25 25 25 26 27 27 28 32 34 35 36 37 39 41 43 45 45 47 47 46 45 46 47 48 49 48 47 46 44 40 38 39 39 39 40 39
1 3 5 1 1 1 3 1 3 2 2 1 1 2 1 3 4 3 3 3 6 10 8 10 12 10 8 6 5 7 8 7 6 6 7 8 10 15 21 27 32 34 35 40 44 45 43 37 32 30 28 26 25 25 27 28 28 30 32 34 35 37 40 43 44 45 46 47 47 47 46 46 47 48 50 51 51 50 47 44 41 39 39 40 41 41
2 2 6 3 3 2 1 3 6 6 4 2 2 3 2 2 1 1 2 2 3 8 8 8 10 10 7 4 7 7 7 5 2 8 8 9 14 21 23 25 29 31 34 40 44 44 43 38 33 33 32 29 27 26 27 28 29 30 32 32 33 35 39 42 43 44 45 46 47 50 50 48 46 47 50 53 54 52 50 48 45 41 40 40 42 42
0 3 5 4 4 5 5 4 6 8 8 6 6 7 7 7 4 5 7 5 3 6 8 8 10 9 7 4 5 4 6 5 8 9 7 9 15 20 22 24 26 29 34 38 42 45 45 43 40 36 35 32 29 28 28 29 30 31 32 30 31 34 38 40 41 42 42 43 47 52 53 51 49 49 50 52 54 54 53 51 49 45 43 41 42 43
3 1 2 5 7 8 11 7 4 7 7 4 4 6 7 7 7 8 10 8 5 5 6 8 10 6 6 11 9 8 11 12 12 11 8 11 20 22 24 27 27 30 36 37 42 47 49 52 49 40 36 34 31 29 29 30 31 31 31 28 29 33 35 38 40 41 42 44 46 50 54 55 54 53 51 51 52 54 54 54 52 50 46 43 42 42
5 2 2 6 5 6 12 12 6 3 2 4 5 6 8 8 9 11 9 5 6 7 6 8 10 6 4 12 16 15 14 11 13 16 14 15 24 27 27 30 33 38 41 39 43 48 50 51 47 37 35 33 29 27 27 30 32 32 31 28 29 33 35 36 40 42 44 47 47 49 53 57 58 56 54 52 51 52 53 54 55 54 51 46 44 43
6 3 4 5 5 5 6 7 8 4 3 4 5 6 10 11 10 8 4 2 7 10 11 11 11 7 6 10 14 18 19 17 17 23 23 21 24 28 29 33 39 41 39 38 42 43 40 37 34 29 28 27 24 25 28 31 33 33 33 33 35 36 37 37 40 42 45 48 49 49 52 56 59 59 56 52 50 50 51 53 55 56 54 50 47 45
6 5 5 6 7 9 8 8 6 4 4 4 4 7 12 13 12 9 5 5 9 10 12 12 10 9 10 11 14 20 24 22 22 26 26 21 23 29 32 35 39 38 38 39 40 38 32 27 27 26 27 30 33 35 36 35 35 37 40 41 40 40 40 41 41 42 45 49 50 50 51 53 57 60 57 53 51 50 51 52 54 55 56 54 50 47
1 5 10 12 13 12 14 14 7 4 5 6 7 10 11 10 11 10 8 9 10 10 12 12 12 14 14 12 17 22 22 23 24 24 22 21 26 32 34 34 35 36 39 39 36 38 38 37 38 38 39 43 44 41 40 39 40 44 47 46 43 42 44 44 43 42 45 49 51 51 50 50 52 56 57 54 52 52 51 52 53 54 55 55 52 49
1 4 12 16 19 18 18 20 16 10 10 9 9 11 10 8 9 10 11 12 11 10 12 11 13 17 16 15 19 22 22 23 23 21 23 28 34 36 35 34 34 36 38 35 33 36 40 42 46 46 46 47 45 42 41 43 46 48 49 48 47 46 46 45 44 44 46 50 52 51 49 46 46 52 56 55 54 53 53 52 53 53 53 54 54 51
2 6 12 14 18 19 18 20 20 17 16 14 13 14 14 14 14 15 17 17 14 14 16 15 18 21 18 17 20 23 23 22 22 25 32 38 42 42 40 37 36 35 33 30 32 35 37 39 41 42 44 45 44 44 43 45 48 50 51 51 51 50 48 45 45 46 48 52 53 51 48 44 45 50 55 55 55 54 53 52 52 52 53 54 54 51
3 6 11 14 18 18 19 20 20 20 19 18 19 20 20 20 22 23 23 22 22 23 23 23 25 25 20 17 20 25 26 24 25 31 37 38 41 43 43 40 38 35 29 27 31 34 35 37 38 39 41 43 45 46 45 46 48 51 54 55 55 54 49 46 47 48 51 53 52 50 47 45 45 48 52 54 55 54 52 52 52 52 52 52 52 51
5 7 10 13 13 14 17 19 19 20 21 22 23 22 21 23 24 24 23 21 20 24 26 27 28 23 18 19 22 25 28 28 26 27 31 37 43 44 42 38 33 29 27 27 28 29 32 37 40 41 42 42 44 45 45 46 47 50 53 55 56 54 49 48 49 51 52 53 50 49 48 46 45 46 50 53 54 53 52 51 51 52 52 51 52 51
4 4 6 9 9 9 13 18 21 22 22 23 22 22 23 23 22 21 21 20 21 24 25 25 22 17 16 20 21 21 24 24 21 23 30 39 40 33 26 23 25 28 30 31 32 31 30 31 34 38 41 42 44 45 46 47 46 48 51 53 53 51 50 52 53 52 53 51 49 50 49 47 45 46 48 51 52 52 51 51 51 51 51 51 51 50
4 4 4 6 7 7 11 16 19 17 14 14 16 22 26 25 23 22 22 22 23 22 20 19 18 16 16 16 16 17 18 17 18 20 21 21 21 22 23 24 28 31 33 34 36 35 34 32 31 31 34 39 43 46 48 48 48 48 49 49 50 51 53 54 53 52 52 50 49 50 50 47 46 46 47 49 50 51 50 50 51 50 50 50 50 50
6 7 6 5 6 7 9 12 12 11 10 8 10 19 26 27 27 26 24 26 28 24 18 13 9 10 10 9 10 12 12 17 21 13 14 23 27 27 26 27 30 33 36 38 38 38 37 36 34 32 31 32 36 41 45 46 48 49 49 49 50 52 53 51 50 50 50 49 49 49 48 47 46 46 46 47 49 50 49 50 49 49 49 49 49 50
10 10 8 6 6 7 8 9 11 10 7 4 3 9 18 24 26 27 27 25 18 11 7 7 12 15 14 12 14 13 17 29 27 13 27 32 32 31 31 33 34 36 37 39 40 40 39 38 36 35 35 34 32 32 36 39 42 45 48 51 54 54 51 48 47 47 47 47 47 47 47 47 46 45 46 47 48 49 49 49 49 48 49 49 49 49
12 10 7 6 7 7 7 9 12 10 5 3 3 4 7 9 12 17 19 10 10 14 13 12 12 12 13 15 18 20 27 32 16 10 25 36 37 34 34 34 36 36 36 38 39 39 39 38 37 37 37 36 35 31 28 28 31 36 41 45 49 50 47 45 45 46 45 44 44 45 46 45 44 45 45 46 47 48 48 48 48 48 48 48 49 49
11 9 7 7 7 7 10 12 12 13 10 6 4 6 6 5 6 9 7 3 12 13 11 11 12 13 13 13 19 26 31 25 8 5 26 41 38 36 35 34 35 36 35 37 37 37 38 37 36 37 36 37 37 35 32 30 28 29 31 35 39 41 41 43 44 43 41 41 41 42 43 43 44 44 45 46 46 47 47 46 46 47 48 48 49 49
8 8 7 7 6 7 12 12 11 13 9 3 6 8 8 11 11 8 5 2 8 10 11 12 13 14 12 11 17 23 23 16 6 10 28 40 38 36 36 34 35 35 34 36 36 37 37 37 36 36 36 36 37 36 36 34 31 28 27 29 31 34 37 40 41 39 38 38 39 40 41 42 43 43 44 44 44 44 45 45 46 47 48 48 49 49
4 6 6 6 5 8 12 11 9 10 3 5 9 9 13 21 17 6 4 2 7 9 9 10 11 11 9 10 14 15 13 10 7 11 27 37 37 35 35 35 35 34 33 33 34 35 37 37 37 37 36 37 37 36 36 36 33 31 30 32 31 30 32 35 37 37 37 36 37 39 40 41 42 42 42 42 42 43 44 45 46 47 47 47 47 47
6 3 2 4 7 9 12 10 8 5 2 6 10 10 18 26 17 4 4 2 9 9 7 9 9 8 8 11 11 7 5 6 9 17 30 36 34 32 32 32 33 32 32 33 33 35 38 39 39 39 37 36 36 35 36 35 34 33 32 32 32 31 31 31 32 34 35 35 36 38 40 41 41 41 41 41 42 42 43 44 44 45 45 46 46 47
3 2 3 5 7 9 11 10 8 3 4 4 8 11 19 20 9 1 5 8 11 11 12 14 12 9 10 12 10 7 7 11 16 25 31 31 30 32 31 30 32 31 31 34 36 37 40 41 41 41 38 36 34 33 34 35 34 34 34 32 32 32 32 31 30 30 31 31 33 36 38 40 40 40 40 41 42 42 42 43 43 43 44 44 44 46
2 2 3 4 4 5 6 7 8 5 2 8 12 13 14 9 2 4 10 13 12 12 16 19 15 12 14 14 12 13 16 17 18 22 25 26 28 32 33 33 35 35 35 37 37 36 39 41 42 43 42 40 36 33 32 34 34 35 35 33 32 31 31 31 31 30 29 28 30 32 35 37 38 39 40 41 42 41 42 42 42 43 43 42 43 44
3 4 5 4 4 5 6 7 8 6 3 14 17 12 8 4 6 10 12 13 14 13 16 19 17 17 19 17 15 15 15 16 16 18 22 27 29 31 34 35 37 38 39 39 38 37 38 39 41 43 42 42 40 36 33 33 34 34 35 34 32 32 31 31 31 31 29 29 29 29 30 33 35 37 39 41 41 41 42 42 42 42 42 42 43 44
4 4 5 4 3 4 5 6 4 3 7 13 10 4 5 9 14 14 12 13 14 13 14 16 16 19 19 16 15 16 14 15 17 20 24 28 30 32 35 35 36 37 38 38 37 37 37 38 40 41 40 40 40 39 36 34 33 33 32 32 32 32 33 33 33 32 30 29 28 27 27 29 31 34 38 40 41 41 41 41 41 41 42 42 43 45
4 4 5 5 4 4 5 7 9 10 14 16 10 7 12 17 18 18 18 18 17 15 14 13 14 17 17 15 16 18 18 18 20 23 25 28 30 31 33 34 35 35 35 36 36 36 37 38 39 40 41 41 39 38 37 35 34 33 31 29 29 30 31 33 34 33 32 30 28 27 26 26 28 32 35 38 40 41 41 42 42 42 43 43 45 46
6 9 8 4 4 6 8 11 12 10 15 21 20 19 22 22 19 19 20 19 17 15 14 13 14 17 17 16 17 19 21 23 24 26 27 27 30 31 30 31 33 33 33 35 36 36 36 38 39 41 43 43 41 39 37 35 33 33 33 31 29 29 30 30 31 32 32 31 30 30 29 27 27 30 34 37 39 41 42 43 43 43 44 44 45 47
7 11 9 4 4 6 7 9 9 10 15 23 27 30 29 22 17 17 17 16 15 15 15 15 16 17 19 19 20 21 23 25 27 29 29 28 30 31 31 31 32 32 33 35 36 37 37 38 41 43 44 45 44 41 39 37 35 32 32 32 31 31 31 30 30 30 30 30 31 33 33 31 29 29 32 35 38 40 42 44 44 44 45 45 46 48
6 5 4 5 7 7 7 10 14 19 25 29 30 30 27 20 16 15 15 15 14 16 17 17 18 20 21 23 24 24 25 27 27 28 29 30 31 32 33 32 32 33 35 35 36 37 38 39 41 43 45 46 46 43 41 41 39 36 33 31 30 31 33 34 33 32 32 31 32 33 34 33 32 31 32 34 36 39 42 44 45 46 46 46 47 48
6 3 3 6 7 6 9 12 15 19 22 24 25 24 22 21 19 16 15 16 16 17 18 20 22 23 23 26 27 26 27 30 30 29 30 32 34 34 34 34 35 36 37 38 39 39 39 41 43 44 45 47 47 45 43 42 41 39 37 34 32 32 34 36 36 35 35 35 34 34 34 34 35 34 34 36 38 39 41 44 46 46 46 46 47 48
5 6 6 6 5 7 9 11 13 12 9 13 21 23 21 21 20 18 18 18 17 17 18 21 24 26 27 28 28 27 28 32 33 32 32 34 36 37 37 38 38 39 41 42 43 43 44 45 45 45 47 50 50 47 45 44 44 42 40 38 36 35 36 38 38 38 39 38 37 36 35 36 38 38 39 40 41 41 42 44 45 46 46 46 47 48
9 10 9 7 7 11 14 19 21 15 10 17 28 27 20 17 18 20 21 19 17 17 19 21 24 27 30 31 30 29 30 33 34 34 35 36 37 38 40 42 42 43 45 45 45 46 48 48 46 46 49 52 53 51 49 48 47 46 44 42 40 38 38 39 40 41 41 40 39 38 37 38 40 41 42 43 44 44 44 45 46 47 47 47 47 47
Wind_Direction
171 149 144 199 221 226 215 200 216 233 240 253 256 254 253 257 264 253 262 264 207 234 237 225 246 248 248 253 254 259 261 262 265 265 263 261 261 262 262 263 262 261 264 266 266 264 261 260 261 262 260 258 255 252 249 249 249 248 246 243 241 238 235 233 232 230 227 226 225 225 226 226 226 227 228 229 229 230 230 231 233 233 234 234 235 235
166 173 206 217 223 223 218 210 223 240 252 257 249 260 263 255 265 257 261 272 220 208 249 232 249 255 247 251 255 258 259 256 258 259 261 260 258 259 259 260 261 262 264 265 265 265 263 261 261 261 260 257 255 252 249 249 249 247 245 244 242 238 235 233 232 232 230 230 229 229 229 228 227 228 229 230 230 231 230 231 232 233 234 234 235 235
179 207 224 225 226 231 241 217 216 235 236 243 242 261 267 252 273 268 250 266 242 185 259 249 252 257 249 251 254 256 254 252 255 255 259 261 258 257 257 258 260 262 263 264 265 266 265 263 262 260 260 259 258 255 251 250 248 245 243 242 240 237 236 234 233 233 233 233 233 233 233 231 230 230 232 233 233 232 232 231 232 232 233 233 234 233
206 227 231 229 220 222 250 234 212 251 241 224 224 245 262 247 263 268 242 266 262 199 266 272 265 263 254 258 253 251 253 254 258 257 259 261 258 256 258 259 259 261 263 264 266 267 266 264 262 259 259 259 257 253 249 247 245 243 242 240 238 237 236 234 233 234 234 234 233 233 233 233 233 233 233 233 233 233 232 232 232 232 232 232 233 233
232 234 227 217 200 206 236 239 220 255 254 222 210 222 250 245 243 254 271 305 300 275 283 289 285 275 228 240 248 247 251 254 258 258 258 260 258 257 260 261 258 258 260 262 265 267 266 264 263 261 259 258 255 253 250 248 245 243 241 240 238 237 236 234 234 233 233 232 231 230 229 230 231 232 232 231 232 231 231 232 232 233 232 232 232 232
247 243 212 179 195 206 217 234 214 221 251 249 210 215 236 244 247 258 281 319 315 292 301 323 293 288 194 210 237 242 247 248 251 252 252 256 257 254 256 260 260 259 259 260 263 266 265 265 264 261 258 256 254 253 252 249 247 244 242 240 237 237 236 235 233 232 232 232 231 231 229 229 228 228 229 230 231 231 231 232 232 232 232 231 231 231
242 229 201 179 197 199 201 238 221 203 239 272 223 212 230 241 249 256 268 295 266 260 291 101 245 284 263 201 220 231 237 243 247 251 250 252 254 250 249 256 261 262 262 261 263 265 265 265 262 260 258 256 255 255 251 246 244 242 241 239 237 237 236 234 233 232 233 233 233 234 235 235 234 233 234 234 234 234 234 234 233 233 232 232 231 231
203 204 200 196 195 181 191 236 224 186 211 266 220 188 209 225 233 229 223 232 238 277 298 163 146 274 282 236 197 210 219 238 248 251 252 250 251 251 251 255 260 263 265 264 266 268 267 265 263 260 259 258 258 254 247 243 241 240 240 238 237 237 236 235 233 233 234 234 235 235 237 238 239 241 241 240 239 238 237 236 236 235 234 233 232 232
171 187 202 191 179 188 207 223 193 161 197 253 161 149 168 190 200 165 169 216 273 349 293 223 142 257 280 257 182 201 205 224 240 240 248 252 251 253 255 258 262 265 267 268 268 269 268 268 266 263 261 259 256 250 245 243 242 241 239 237 236 236 236 235 234 234 235 236 236 237 237 239 240 241 242 242 242 241 240 238 238 237 235 234 233 232
183 187 193 172 171 214 217 215 162 162 204 226 112 94 78 82 82 96 124 139 18 307 252 204 164 229 281 276 143 159 201 219 235 236 246 259 259 258 258 262 267 270 271 269 268 267 267 269 269 264 261 254 248 245 243 242 241 240 238 237 236 235 235 234 234 235 235 235 236 236 238 239 240 240 240 241 241 241 241 240 239 238 236 235 234 233
246 106 144 178 195 207 180 133 144 167 182 122 96 57 33 21 27 55 42 68 8 279 234 188 184 190 272 286 138 175 215 211 223 235 250 262 262 261 261 266 270 272 272 267 265 266 266 266 265 260 254 247 240 238 238 238 238 237 237 236 235 234 234 234 234 234 234 235 235 236 237 238 239 239 240 240 240 241 240 239 239 239 237 236 235 234
255 174 199 212 192 149 102 94 38 60 106 106 94 75 33 333 5 25 354 58 214 265 226 188 186 184 235 259 180 234 257 215 206 221 236 245 253 256 261 268 270 269 270 268 265 266 265 263 261 256 246 235 231 232 233 234 235 235 235 235 234 233 233 233 233 233 233 234 235 236 237 238 238 238 240 241 242 243 242 242 240 239 238 236 235 235
267 220 210 202 183 160 130 110 358 3 72 111 113 123 121 300 338 350 306 117 217 257 234 186 177 206 242 245 220 260 272 240 213 211 222 231 247 254 259 265 268 269 271 271 270 267 262 261 260 256 245 229 225 228 230 231 233 233 233 233 233 232 231 230 230 230 231 232 233 234 235 237 237 237 238 242 244 246 246 245 243 240 239 237 236 235
293 270 186 136 255 190 162 166 221 272 173 161 155 154 169 212 230 258 263 268 259 264 257 171 166 247 276 262 216 233 249 248 237 228 230 234 244 253 258 262 267 271 272 272 272 268 262 259 260 256 246 233 226 225 228 231 232 233 232 232 232 232 230 229 228 229 229 230 231 232 234 235 235 235 236 239 242 245 247 247 246 245 243 241 240 239
255 286 193 161 218 181 178 202 199 151 158 187 159 144 177 186 180 207 229 249 261 277 296 183 174 224 273 278 220 223 253 267 257 248 248 251 253 256 262 263 264 268 271 271 272 271 266 259 260 257 247 238 231 227 229 230 232 234 232 230 230 229 228 227 227 228 228 228 229 231 233 233 233 233 234 237 240 243 245 246 247 247 246 245 244 243
223 271 227 182 164 161 183 213 184 118 125 219 117 121 217 200 178 220 247 236 228 296 289 223 216 235 233 257 249 239 264 271 267 272 276 269 259 256 259 261 261 261 264 270 275 278 274 262 258 256 247 240 233 230 232 233 233 234 233 229 229 229 228 227 227 228 229 230 232 233 232 232 232 232 233 235 237 240 243 244 246 247 248 247 246 245
230 273 247 181 291 167 190 223 171 154 196 185 135 182 217 159 159 223 271 291 107 258 263 220 239 276 304 279 260 224 251 260 276 278 266 259 258 257 257 259 261 260 263 273 281 287 282 268 259 254 246 242 239 235 236 237 237 238 235 231 230 230 229 229 229 230 230 232 234 234 234 233 233 232 232 232 234 238 241 243 244 245 246 247 246 244
238 271 254 181 222 273 355 17 23 355 112 127 179 210 160 76 130 176 243 320 251 250 261 254 257 271 294 280 300 28 323 286 281 277 272 275 274 272 269 267 268 268 270 277 282 288 286 272 260 251 244 243 244 245 243 242 243 243 239 236 234 233 232 232 231 231 232 233 234 234 235 235 235 234 234 234 235 237 239 242 243 243 243 244 244 243
241 264 273 176 181 302 16 28 332 349 62 136 204 225 108 148 232 163 170 219 235 244 253 263 269 267 242 250 276 310 290 280 284 309 320 301 286 282 283 282 281 279 280 284 284 283 282 274 261 249 244 243 245 247 245 242 243 245 243 240 239 238 238 236 235 233 234 235 236 235 236 237 238 237 237 237 237 237 238 241 243 243 242 242 242 241
313 258 274 2 22 308 26 123 200 271 332 131 265 332 75 177 193 183 182 182 226 244 249 256 267 265 242 227 214 231 239 241 279 332 327 297 298 300 300 300 297 293 293 292 288 282 278 274 264 252 245 244 246 249 246 242 242 243 243 241 241 242 241 239 239 238 238 238 239 238 236 238 240 240 240 239 238 238 238 239 242 243 243 242 241 240
8 265 263 316 339 282 227 198 190 189 196 190 220 246 248 225 188 241 238 172 220 247 250 247 251 258 260 198 169 203 213 194 299 331 314 298 305 304 300 298 296 295 294 292 292 288 280 274 267 256 247 242 245 250 246 243 243 242 242 243 244 245 243 242 243 242 242 243 243 241 238 237 239 241 242 241 240 240 239 239 241 243 244 243 242 241
20 256 264 279 274 258 256 231 195 202 199 186 198 210 214 221 234 265 252 219 210 244 247 250 251 255 271 251 168 192 251 282 312 306 283 275 282 285 286 285 287 293 296 297 298 296 290 283 275 259 248 244 245 250 247 243 243 244 245 246 248 248 245 244 245 245 247 248 248 246 242 238 239 240 242 242 242 241 240 240 240 241 243 243 243 242
153 160 272 258 248 259 279 285 228 230 242 241 230 216 214 216 213 234 245 230 221 240 245 261 261 247 272 282 278 277 280 287 287 269 249 256 263 268 276 280 284 288 290 290 289 288 287 284 278 263 250 250 252 254 250 245 245 245 248 252 254 253 250 246 246 247 249 250 251 251 247 241 239 239 240 242 243 242 241 241 241 240 241 243 243 241
152 131 234 253 264 265 278 290 280 239 236 270 265 227 219 224 220 229 244 238 233 235 233 256 258 236 246 275 279 282 278 269 256 252 252 259 265 269 274 280 283 283 282 280 280 283 282 279 274 261 250 253 257 259 256 253 251 249 250 255 255 254 252 250 250 250 249 250 252 253 250 244 240 238 239 241 244 244 243 243 242 241 241 241 241 240
192 191 203 233 263 258 262 284 276 248 199 224 238 229 230 232 233 245 267 249 238 233 228 243 254 244 239 261 276 284 281 272 264 263 262 261 267 273 277 282 283 280 277 277 279 284 285 279 272 261 256 263 274 281 277 265 257 256 259 261 257 254 254 253 252 251 252 252 251 251 250 246 242 239 239 240 243 245 244 244 243 242 241 240 240 239
203 214 196 217 244 248 249 251 242 230 230 228 220 229 232 226 226 238 246 237 238 231 229 240 252 253 255 265 275 276 275 276 276 274 269 262 268 278 281 281 280 276 273 275 279 283 286 282 275 272 277 286 291 291 284 269 262 266 268 264 259 258 258 254 251 252 254 254 251 250 250 248 245 242 240 241 243 244 245 245 244 243 242 241 240 238
181 218 213 228 234 238 251 252 234 186 210 229 228 227 229 227 227 234 239 238 243 245 241 242 250 257 260 261 263 265 271 277 279 279 279 276 277 281 282 279 278 276 274 276 279 282 284 283 283 285 288 290 290 286 278 271 270 272 269 262 260 262 260 255 251 253 256 255 252 250 249 249 250 247 243 241 242 243 244 245 244 243 242 241 240 238
200 225 220 232 236 237 247 252 250 241 234 234 234 233 233 230 227 231 238 241 248 258 254 243 246 254 252 248 254 262 267 269 273 280 286 286 284 283 282 281 278 276 276 278 280 279 279 279 281 284 285 285 284 280 276 275 274 272 269 264 262 263 262 256 252 254 258 257 252 250 249 250 253 250 244 241 241 242 243 244 244 243 242 241 239 238
213 240 229 235 242 241 243 248 251 252 250 242 237 241 242 238 237 238 241 241 241 249 255 252 247 249 247 244 249 255 258 262 270 278 280 282 284 284 284 283 280 279 279 280 280 280 278 277 277 278 278 279 279 277 275 274 274 273 270 267 264 263 261 257 254 256 259 257 253 252 251 250 251 249 244 240 240 240 241 243 244 242 241 240 239 238
216 237 233 239 248 247 243 245 245 246 252 251 244 242 242 243 245 245 245 246 246 250 258 259 255 254 251 247 246 250 257 264 268 271 273 277 280 283 284 284 285 289 293 292 287 284 281 278 277 276 276 276 276 276 273 271 271 270 269 269 267 263 260 258 257 258 259 258 255 253 250 248 247 246 243 240 239 240 240 242 242 241 239 239 238 237
236 231 233 243 252 248 244 246 242 239 241 244 243 241 241 245 248 250 252 254 253 255 257 255 256 258 255 253 254 256 260 264 265 267 271 273 275 278 284 290 301 316 326 326 318 308 297 288 282 280 278 276 275 274 271 269 269 268 268 269 267 263 261 261 261 260 260 259 257 252 247 246 245 245 243 240 239 239 240 241 241 239 238 237 237 236
268 262 257 260 261 246 240 242 242 239 238 240 243 243 243 244 245 247 248 245 246 252 254 254 256 254 249 250 251 253 256 257 259 263 266 270 277 289 307 327 348 358 357 353 351 348 337 321 305 294 289 285 283 280 273 268 268 271 272 270 266 264 264 264 261 261 262 261 257 249 244 244 244 244 242 239 238 238 239 240 239 237 237 236 236 235
248 266 263 262 264 253 245 244 244 243 240 237 234 232 237 242 243 245 247 246 245 246 249 251 250 252 258 261 263 266 264 261 263 269 277 294 321 350 8 10 5 359 356 354 354 355 354 349 338 321 307 296 289 285 280 273 271 275 275 272 270 268 267 266 264 264 263 260 254 247 244 243 243 243 242 239 238 238 238 238 237 236 237 236 235 234
241 254 257 256 263 266 265 263 259 248 241 242 226 222 229 237 241 243 245 245 245 246 251 261 283 318 329 334 327 316 311 308 305 322 26 28 19 12 5 360 356 351 350 349 348 349 351 350 349 343 331 315 296 285 281 279 278 279 279 276 274 272 270 269 268 267 264 259 253 247 244 243 242 242 241 238 237 237 237 237 237 236 236 235 234 233
252 256 257 253 260 272 278 275 265 251 248 286 276 232 235 240 245 249 250 252 264 288 327 9 21 17 16 12 356 347 334 320 318 20 52 31 15 7 355 349 349 346 344 343 343 345 347 347 348 347 345 338 323 301 287 283 284 285 284 280 277 274 272 270 268 266 263 258 252 247 244 243 242 241 239 237 236 236 236 236 236 235 235 234 234 234
243 253 258 256 259 270 269 260 260 268 278 298 318 325 298 280 281 276 266 278 2 22 34 37 26 19 17 7 355 349 340 328 320 68 39 10 2 359 349 343 344 342 342 342 341 342 344 347 348 348 346 346 344 337 322 308 298 291 288 285 282 277 273 269 266 264 260 255 252 248 245 244 242 240 238 237 236 235 235 235 234 234 234 233 233 233
231 241 251 253 245 253 263 258 263 277 278 268 295 341 348 324 313 297 274 29 37 27 27 25 15 13 14 4 353 349 347 344 339 27 359 351 350 348 343 341 342 341 342 344 344 344 346 347 349 349 348 346 347 350 350 344 331 313 302 298 292 283 276 270 265 262 259 256 253 249 247 244 242 239 238 236 235 235 235 235 235 234 234 232 231 231
231 229 240 257 241 245 264 262 266 272 268 304 321 316 323 308 294 279 240 118 43 22 20 22 12 5 3 357 354 352 351 353 352 330 337 340 341 340 339 339 341 343 345 347 348 348 348 349 349 349 349 348 348 350 351 353 351 342 331 325 312 294 281 274 267 261 259 257 254 250 247 244 241 240 238 237 237 238 237 236 235 234 233 232 231 231
296 244 232 255 251 255 263 261 271 270 248 22 332 313 327 321 311 289 214 162 42 20 16 20 5 355 356 347 345 352 354 350 334 319 327 332 333 333 334 335 339 343 345 348 350 347 345 346 346 345 346 347 349 351 351 352 355 354 350 345 332 312 294 283 273 266 263 259 255 251 247 244 242 241 240 240 240 239 237 236 234 233 232 231 231 231
338 292 251 262 262 273 274 270 282 275 115 13 332 327 332 323 316 298 235 312 13 5 5 12 353 334 337 330 329 350 3 329 301 306 319 324 326 329 332 334 338 342 344 346 345 342 339 339 341 341 342 343 345 348 349 350 353 355 352 348 342 333 319 303 286 275 269 263 259 254 249 246 244 243 243 242 241 238 236 235 234 233 232 231 230 230
323 308 282 267 264 274 272 270 281 253 133 21 335 336 338 330 323 291 290 322 343 334 334 343 333 318 320 317 316 320 305 294 293 301 313 321 324 327 331 333 336 338 338 338 337 336 335 335 336 336 336 338 341 342 343 344 346 349 349 346 345 340 332 321 307 294 283 275 268 262 256 251 247 246 245 242 240 238 236 235 235 234 233 231 229 229
300 279 266 260 271 285 272 274 283 260 105 20 349 345 359 5 346 286 306 314 312 308 320 326 321 316 316 312 313 311 305 307 308 308 316 323 324 325 329 331 332 332 332 332 333 334 333 332 332 332 331 333 336 338 339 339 337 339 340 343 345 342 334 328 322 314 305 294 283 274 265 257 251 248 246 242 239 237 236 234 234 234 232 231 230 230
285 283 282 261 262 279 267 263 266 255 352 3 352 353 22 28 274 279 295 299 290 288 305 312 314 320 321 317 318 317 314 318 320 317 320 322 322 323 325 326 328 327 328 329 329 331 332 331 329 329 328 328 330 333 335 336 334 331 330 332 337 337 334 332 329 324 318 309 299 288 275 264 257 252 248 244 241 238 236 235 234 233 232 230 230 230
258 254 268 264 268 278 258 255 271 284 326 340 338 312 306 302 287 283 286 287 285 290 298 301 306 314 315 311 314 318 318 318 317 318 319 319 319 320 319 321 323 323 324 326 326 328 330 329 327 326 325 325 327 329 331 332 331 328 324 323 324 323 324 327 328 327 324 319 313 303 288 275 265 257 252 248 244 240 238 238 237 235 233 231 230 230
228 228 252 261 266 263 247 265 291 303 309 313 301 262 284 298 294 288 283 275 278 293 301 297 301 306 305 304 309 311 311 312 313 314 314 314 314 314 315 317 319 320 322 323 324 326 328 327 325 323 322 322 325 327 329 329 327 322 319 319 317 313 312 314 315 317 318 319 318 314 304 290 275 264 257 252 249 245 243 242 240 237 235 232 231 230
259 266 269 259 254 262 259 264 275 292 301 300 295 293 297 295 288 287 282 267 268 286 295 293 295 296 296 301 307 308 309 311 311 311 311 311 311 312 313 314 316 318 319 319 321 324 325 324 323 321 320 320 323 326 327 325 322 318 314 313 312 308 304 301 300 302 303 306 309 311 308 300 286 272 264 259 254 250 247 245 243 240 237 235 232 231
254 251 253 257 268 270 268 265 270 282 286 287 292 297 296 289 285 289 280 261 262 280 286 286 288 289 293 302 307 306 307 309 309 309 310 311 310 311 312 312 313 314 315 316 318 321 321 321 320 319 319 319 320 323 324 321 317 313 309 308 307 305 301 297 295 294 293 292 294 296 297 296 289 278 269 264 258 253 249 246 244 242 240 238 235 232
249 234 227 245 250 246 256 274 281 282 281 283 286 286 284 284 289 288 273 263 270 280 281 283 287 291 297 304 308 308 307 306 306 306 308 309 309 309 310 310 311 311 311 313 315 317 317 318 317 316 316 316 317 319 319 317 314 312 308 305 303 302 300 296 294 294 291 286 283 281 282 284 283 278 273 269 264 258 253 249 246 245 245 244 242 239
249 275 247 247 259 266 271 277 281 282 281 281 280 277 279 287 291 281 268 271 278 280 280 284 289 294 300 305 309 309 306 305 306 307 307 307 308 308 308 308 309 309 310 312 313 314 314 314 314 314 313 313 314 315 313 312 311 309 307 304 301 299 298 295 292 291 289 285 281 276 272 272 273 272 270 268 266 262 258 255 252 251 250 249 247 244
232 264 258 251 262 268 263 262 267 273 276 278 282 285 286 286 286 281 277 278 279 282 288 291 292 295 300 304 307 306 304 304 307 309 308 307 308 309 309 308 308 308 310 311 311 312 312 312 312 312 311 311 311 311 309 307 306 305 304 302 299 295 293 292 291 289 286 284 281 277 273 269 268 265 262 261 260 258 255 253 250 249 248 246 244 241
226 242 247 246 252 256 258 260 261 261 267 279 284 288 289 283 281 279 278 280 283 289 295 298 298 299 302 304 305 304 303 304 307 307 306 306 307 308 309 308 308 308 308 309 308 308 309 309 309 309 308 308 308 307 304 303 302 302 301 300 297 292 288 288 288 286 284 282 280 279 277 273 269 265 261 257 254 253 250 248 247 244 242 242 240 238